Year,Month,Day,Hour,Minute,Value (Times are PST for temperature in C)
2009,05,22,00,00,10.80
2009,05,22,00,01,10.80
2009,05,22,00,02,10.80
2009,05,22,00,03,10.80
2009,05,22,00,04,10.70
2009,05,22,00,05,10.70
2009,05,22,00,06,10.70
2009,05,22,00,07,10.60
2009,05,22,00,08,10.60
2009,05,22,00,09,10.60
2009,05,22,00,10,10.60
2009,05,22,00,11,10.50
2009,05,22,00,12,10.50
2009,05,22,00,13,10.50
2009,05,22,00,14,10.40
2009,05,22,00,15,10.40
2009,05,22,00,16,10.40
2009,05,22,00,17,10.40
2009,05,22,00,18,10.30
2009,05,22,00,19,10.30
2009,05,22,00,20,10.30
2009,05,22,00,21,10.30
2009,05,22,00,22,10.30
2009,05,22,00,23,10.30
2009,05,22,00,24,10.40
2009,05,22,00,25,10.40
2009,05,22,00,26,10.40
2009,05,22,00,27,10.40
2009,05,22,00,28,10.40
2009,05,22,00,29,10.40
2009,05,22,00,30,10.40
2009,05,22,00,31,10.40
2009,05,22,00,32,10.30
2009,05,22,00,33,10.30
2009,05,22,00,34,10.30
2009,05,22,00,35,10.30
2009,05,22,00,36,10.30
2009,05,22,00,37,10.30
2009,05,22,00,38,10.30
2009,05,22,00,39,10.30
2009,05,22,00,40,10.30
2009,05,22,00,41,10.30
2009,05,22,00,42,10.40
2009,05,22,00,43,10.40
2009,05,22,00,44,10.40
2009,05,22,00,45,10.40
2009,05,22,00,46,10.40
2009,05,22,00,47,10.30
2009,05,22,00,48,10.30
2009,05,22,00,49,10.30
2009,05,22,00,50,10.20
2009,05,22,00,51,10.20
2009,05,22,00,52,10.20
2009,05,22,00,53,10.10
2009,05,22,00,54,10.10
2009,05,22,00,55,10.00
2009,05,22,00,56,10.00
2009,05,22,00,57,9.90
2009,05,22,00,58,9.90
2009,05,22,00,59,9.80
2009,05,22,01,00,9.80
2009,05,22,01,01,9.70
2009,05,22,01,02,9.70
2009,05,22,01,03,9.60
2009,05,22,01,04,9.60
2009,05,22,01,05,9.60
2009,05,22,01,06,9.50
2009,05,22,01,07,9.50
2009,05,22,01,08,9.40
2009,05,22,01,09,9.40
2009,05,22,01,10,9.30
2009,05,22,01,11,9.30
2009,05,22,01,12,9.30
2009,05,22,01,13,9.30
2009,05,22,01,14,9.20
2009,05,22,01,15,9.20
2009,05,22,01,16,9.20
2009,05,22,01,17,9.10
2009,05,22,01,18,9.10
2009,05,22,01,19,9.00
2009,05,22,01,20,9.00
2009,05,22,01,21,9.00
2009,05,22,01,22,8.90
2009,05,22,01,23,8.90
2009,05,22,01,24,8.90
2009,05,22,01,25,8.80
2009,05,22,01,26,8.80
2009,05,22,01,27,8.80
2009,05,22,01,28,8.80
2009,05,22,01,29,8.80
2009,05,22,01,30,8.80
2009,05,22,01,31,8.70
2009,05,22,01,32,8.70
2009,05,22,01,33,8.70
2009,05,22,01,34,8.70
2009,05,22,01,35,8.70
2009,05,22,01,36,8.60
2009,05,22,01,37,8.60
2009,05,22,01,38,8.60
2009,05,22,01,39,8.60
2009,05,22,01,40,8.60
2009,05,22,01,41,8.60
2009,05,22,01,42,8.50
2009,05,22,01,43,8.50
2009,05,22,01,44,8.50
2009,05,22,01,45,8.50
2009,05,22,01,46,8.40
2009,05,22,01,47,8.40
2009,05,22,01,48,8.40
2009,05,22,01,49,8.40
2009,05,22,01,50,8.40
2009,05,22,01,51,8.40
2009,05,22,01,52,8.40
2009,05,22,01,53,8.30
2009,05,22,01,54,8.30
2009,05,22,01,55,8.30
2009,05,22,01,56,8.20
2009,05,22,01,57,8.20
2009,05,22,01,58,8.20
2009,05,22,01,59,8.20
2009,05,22,02,00,8.20
2009,05,22,02,01,8.10
2009,05,22,02,02,8.10
2009,05,22,02,03,8.10
2009,05,22,02,04,8.10
2009,05,22,02,05,8.10
2009,05,22,02,06,8.10
2009,05,22,02,07,8.10
2009,05,22,02,08,8.00
2009,05,22,02,09,8.00
2009,05,22,02,10,8.00
2009,05,22,02,11,8.00
2009,05,22,02,12,8.00
2009,05,22,02,13,7.90
2009,05,22,02,14,7.90
2009,05,22,02,15,7.90
2009,05,22,02,16,7.90
2009,05,22,02,17,7.90
2009,05,22,02,18,7.90
2009,05,22,02,19,7.80
2009,05,22,02,20,7.80
2009,05,22,02,21,7.80
2009,05,22,02,22,7.80
2009,05,22,02,23,7.80
2009,05,22,02,24,7.80
2009,05,22,02,25,7.80
2009,05,22,02,26,7.80
2009,05,22,02,27,7.80
2009,05,22,02,28,7.80
2009,05,22,02,29,7.70
2009,05,22,02,30,7.70
2009,05,22,02,31,7.70
2009,05,22,02,32,7.70
2009,05,22,02,33,7.70
2009,05,22,02,34,7.70
2009,05,22,02,35,7.70
2009,05,22,02,36,7.70
2009,05,22,02,37,7.60
2009,05,22,02,38,7.60
2009,05,22,02,39,7.60
2009,05,22,02,40,7.60
2009,05,22,02,41,7.60
2009,05,22,02,42,7.60
2009,05,22,02,43,7.60
2009,05,22,02,44,7.60
2009,05,22,02,45,7.60
2009,05,22,02,46,7.60
2009,05,22,02,47,7.60
2009,05,22,02,48,7.60
2009,05,22,02,49,7.50
2009,05,22,02,50,7.50
2009,05,22,02,51,7.50
2009,05,22,02,52,7.50
2009,05,22,02,53,7.40
2009,05,22,02,54,7.40
2009,05,22,02,55,7.40
2009,05,22,02,56,7.40
2009,05,22,02,57,7.40
2009,05,22,02,58,7.40
2009,05,22,02,59,7.40
2009,05,22,03,00,7.40
2009,05,22,03,01,7.40
2009,05,22,03,02,7.40
2009,05,22,03,03,7.40
2009,05,22,03,04,7.40
2009,05,22,03,05,7.40
2009,05,22,03,06,7.40
2009,05,22,03,07,7.40
2009,05,22,03,08,7.40
2009,05,22,03,09,7.40
2009,05,22,03,10,7.40
2009,05,22,03,11,7.30
2009,05,22,03,12,7.30
2009,05,22,03,13,7.30
2009,05,22,03,14,7.30
2009,05,22,03,15,7.30
2009,05,22,03,16,7.30
2009,05,22,03,17,7.20
2009,05,22,03,18,7.20
2009,05,22,03,19,7.20
2009,05,22,03,20,7.20
2009,05,22,03,21,7.20
2009,05,22,03,22,7.20
2009,05,22,03,23,7.10
2009,05,22,03,24,7.10
2009,05,22,03,25,7.10
2009,05,22,03,26,7.10
2009,05,22,03,27,7.10
2009,05,22,03,28,7.10
2009,05,22,03,29,7.00
2009,05,22,03,30,7.00
2009,05,22,03,31,7.00
2009,05,22,03,32,7.00
2009,05,22,03,33,7.00
2009,05,22,03,34,7.00
2009,05,22,03,35,7.00
2009,05,22,03,36,6.90
2009,05,22,03,37,6.90
2009,05,22,03,38,6.90
2009,05,22,03,39,6.90
2009,05,22,03,40,6.90
2009,05,22,03,41,6.90
2009,05,22,03,42,6.90
2009,05,22,03,43,6.90
2009,05,22,03,44,6.90
2009,05,22,03,45,6.90
2009,05,22,03,46,7.00
2009,05,22,03,47,7.00
2009,05,22,03,48,7.00
2009,05,22,03,49,7.00
2009,05,22,03,50,7.00
2009,05,22,03,51,7.00
2009,05,22,03,52,7.00
2009,05,22,03,53,7.00
2009,05,22,03,54,7.00
2009,05,22,03,55,7.00
2009,05,22,03,56,7.00
2009,05,22,03,57,7.00
2009,05,22,03,58,7.00
2009,05,22,03,59,7.00
2009,05,22,04,00,7.00
2009,05,22,04,01,7.00
2009,05,22,04,02,7.00
2009,05,22,04,03,7.00
2009,05,22,04,04,6.90
2009,05,22,04,05,6.90
2009,05,22,04,06,6.90
2009,05,22,04,07,6.90
2009,05,22,04,08,6.90
2009,05,22,04,09,6.90
2009,05,22,04,10,6.90
2009,05,22,04,11,6.90
2009,05,22,04,12,6.90
2009,05,22,04,13,6.90
2009,05,22,04,14,6.90
2009,05,22,04,15,6.90
2009,05,22,04,16,6.90
2009,05,22,04,17,6.80
2009,05,22,04,18,6.80
2009,05,22,04,19,6.80
2009,05,22,04,20,6.80
2009,05,22,04,21,6.80
2009,05,22,04,22,6.80
2009,05,22,04,23,6.80
2009,05,22,04,24,6.70
2009,05,22,04,25,6.70
2009,05,22,04,26,6.70
2009,05,22,04,27,6.70
2009,05,22,04,28,6.70
2009,05,22,04,29,6.70
2009,05,22,04,30,6.70
2009,05,22,04,31,6.60
2009,05,22,04,32,6.60
2009,05,22,04,33,6.60
2009,05,22,04,34,6.60
2009,05,22,04,35,6.60
2009,05,22,04,36,6.60
2009,05,22,04,37,6.60
2009,05,22,04,38,6.50
2009,05,22,04,39,6.50
2009,05,22,04,40,6.50
2009,05,22,04,41,6.40
2009,05,22,04,42,6.40
2009,05,22,04,43,6.40
2009,05,22,04,44,6.40
2009,05,22,04,45,6.40
2009,05,22,04,46,6.40
2009,05,22,04,47,6.30
2009,05,22,04,48,6.30
2009,05,22,04,49,6.30
2009,05,22,04,50,6.30
2009,05,22,04,51,6.30
2009,05,22,04,52,6.30
2009,05,22,04,53,6.30
2009,05,22,04,54,6.30
2009,05,22,04,55,6.30
2009,05,22,04,56,6.30
2009,05,22,04,57,6.30
2009,05,22,04,58,6.30
2009,05,22,04,59,6.20
2009,05,22,05,00,6.20
2009,05,22,05,01,6.20
2009,05,22,05,02,6.20
2009,05,22,05,03,6.20
2009,05,22,05,04,6.20
2009,05,22,05,05,6.20
2009,05,22,05,06,6.20
2009,05,22,05,07,6.20
2009,05,22,05,08,6.20
2009,05,22,05,09,6.20
2009,05,22,05,10,6.20
2009,05,22,05,11,6.20
2009,05,22,05,12,6.10
2009,05,22,05,13,6.10
2009,05,22,05,14,6.10
2009,05,22,05,15,6.10
2009,05,22,05,16,6.10
2009,05,22,05,17,6.10
2009,05,22,05,18,6.10
2009,05,22,05,19,6.00
2009,05,22,05,20,6.00
2009,05,22,05,21,6.00
2009,05,22,05,22,6.00
2009,05,22,05,23,6.00
2009,05,22,05,24,6.00
2009,05,22,05,25,6.00
2009,05,22,05,26,6.00
2009,05,22,05,27,6.00
2009,05,22,05,28,6.00
2009,05,22,05,29,6.00
2009,05,22,05,30,6.00
2009,05,22,05,31,6.00
2009,05,22,05,32,6.00
2009,05,22,05,33,6.10
2009,05,22,05,34,6.10
2009,05,22,05,35,6.10
2009,05,22,05,36,6.10
2009,05,22,05,37,6.10
2009,05,22,05,38,6.20
2009,05,22,05,39,6.20
2009,05,22,05,40,6.20
2009,05,22,05,41,6.20
2009,05,22,05,42,6.20
2009,05,22,05,43,6.20
2009,05,22,05,44,6.30
2009,05,22,05,45,6.30
2009,05,22,05,46,6.30
2009,05,22,05,47,6.30
2009,05,22,05,48,6.30
2009,05,22,05,49,6.30
2009,05,22,05,50,6.30
2009,05,22,05,51,6.30
2009,05,22,05,52,6.30
2009,05,22,05,53,6.30
2009,05,22,05,54,6.30
2009,05,22,05,55,6.30
2009,05,22,05,56,6.30
2009,05,22,05,57,6.30
2009,05,22,05,58,6.30
2009,05,22,05,59,6.30
2009,05,22,06,00,6.30
2009,05,22,06,01,6.30
2009,05,22,06,02,6.30
2009,05,22,06,03,6.40
2009,05,22,06,04,6.40
2009,05,22,06,05,6.40
2009,05,22,06,06,6.40
2009,05,22,06,07,6.40
2009,05,22,06,08,6.40
2009,05,22,06,09,6.50
2009,05,22,06,10,6.50
2009,05,22,06,11,6.60
2009,05,22,06,12,6.60
2009,05,22,06,13,6.60
2009,05,22,06,14,6.60
2009,05,22,06,15,6.70
2009,05,22,06,16,6.70
2009,05,22,06,17,6.70
2009,05,22,06,18,6.70
2009,05,22,06,19,6.80
2009,05,22,06,20,6.80
2009,05,22,06,21,6.80
2009,05,22,06,22,6.90
2009,05,22,06,23,6.90
2009,05,22,06,24,6.90
2009,05,22,06,25,6.90
2009,05,22,06,26,6.90
2009,05,22,06,27,6.90
2009,05,22,06,28,7.00
2009,05,22,06,29,7.00
2009,05,22,06,30,7.00
2009,05,22,06,31,7.10
2009,05,22,06,32,7.10
2009,05,22,06,33,7.10
2009,05,22,06,34,7.10
2009,05,22,06,35,7.10
2009,05,22,06,36,7.10
2009,05,22,06,37,7.10
2009,05,22,06,38,7.10
2009,05,22,06,39,7.20
2009,05,22,06,40,7.20
2009,05,22,06,41,7.20
2009,05,22,06,42,7.20
2009,05,22,06,43,7.20
2009,05,22,06,44,7.20
2009,05,22,06,45,7.30
2009,05,22,06,46,7.30
2009,05,22,06,47,7.40
2009,05,22,06,48,7.40
2009,05,22,06,49,7.40
2009,05,22,06,50,7.50
2009,05,22,06,51,7.50
2009,05,22,06,52,7.60
2009,05,22,06,53,7.60
2009,05,22,06,54,7.70
2009,05,22,06,55,7.70
2009,05,22,06,56,7.80
2009,05,22,06,57,7.80
2009,05,22,06,58,7.80
2009,05,22,06,59,7.90
2009,05,22,07,00,7.90
2009,05,22,07,01,8.00
2009,05,22,07,02,8.10
2009,05,22,07,03,8.10
2009,05,22,07,04,8.10
2009,05,22,07,05,8.20
2009,05,22,07,06,8.20
2009,05,22,07,07,8.30
2009,05,22,07,08,8.40
2009,05,22,07,09,8.50
2009,05,22,07,10,8.60
2009,05,22,07,11,8.70
2009,05,22,07,12,8.80
2009,05,22,07,13,8.90
2009,05,22,07,14,8.90
2009,05,22,07,15,9.00
2009,05,22,07,16,9.10
2009,05,22,07,17,9.10
2009,05,22,07,18,9.20
2009,05,22,07,19,9.30
2009,05,22,07,20,9.50
2009,05,22,07,21,9.60
2009,05,22,07,22,9.70
2009,05,22,07,23,9.80
2009,05,22,07,24,9.80
2009,05,22,07,25,9.90
2009,05,22,07,26,9.90
2009,05,22,07,27,10.00
2009,05,22,07,28,10.00
2009,05,22,07,29,10.10
2009,05,22,07,30,10.10
2009,05,22,07,31,10.10
2009,05,22,07,32,10.20
2009,05,22,07,33,10.20
2009,05,22,07,34,10.20
2009,05,22,07,35,10.20
2009,05,22,07,36,10.20
2009,05,22,07,37,10.20
2009,05,22,07,38,10.30
2009,05,22,07,39,10.30
2009,05,22,07,40,10.30
2009,05,22,07,41,10.30
2009,05,22,07,42,10.40
2009,05,22,07,43,10.40
2009,05,22,07,44,10.50
2009,05,22,07,45,10.50
2009,05,22,07,46,10.60
2009,05,22,07,47,10.60
2009,05,22,07,48,10.70
2009,05,22,07,49,10.80
2009,05,22,07,50,10.90
2009,05,22,07,51,11.00
2009,05,22,07,52,11.10
2009,05,22,07,53,11.20
2009,05,22,07,54,11.30
2009,05,22,07,55,11.40
2009,05,22,07,56,11.60
2009,05,22,07,57,11.70
2009,05,22,07,58,11.80
2009,05,22,07,59,11.80
2009,05,22,08,00,11.90
2009,05,22,08,01,12.00
2009,05,22,08,02,12.10
2009,05,22,08,03,12.10
2009,05,22,08,04,12.20
2009,05,22,08,05,12.20
2009,05,22,08,06,12.30
2009,05,22,08,07,12.40
2009,05,22,08,08,12.50
2009,05,22,08,09,12.50
2009,05,22,08,10,12.60
2009,05,22,08,11,12.60
2009,05,22,08,12,12.70
2009,05,22,08,13,12.70
2009,05,22,08,14,12.80
2009,05,22,08,15,12.80
2009,05,22,08,16,12.70
2009,05,22,08,17,12.70
2009,05,22,08,18,12.60
2009,05,22,08,19,12.60
2009,05,22,08,20,12.60
2009,05,22,08,21,12.60
2009,05,22,08,22,12.50
2009,05,22,08,23,12.50
2009,05,22,08,24,12.60
2009,05,22,08,25,12.60
2009,05,22,08,26,12.70
2009,05,22,08,27,12.80
2009,05,22,08,28,12.80
2009,05,22,08,29,12.90
2009,05,22,08,30,12.90
2009,05,22,08,31,13.00
2009,05,22,08,32,13.10
2009,05,22,08,33,13.10
2009,05,22,08,34,13.10
2009,05,22,08,35,13.10
2009,05,22,08,36,13.20
2009,05,22,08,37,13.20
2009,05,22,08,38,13.20
2009,05,22,08,39,13.20
2009,05,22,08,40,13.20
2009,05,22,08,41,13.30
2009,05,22,08,42,13.30
2009,05,22,08,43,13.40
2009,05,22,08,44,13.40
2009,05,22,08,45,13.50
2009,05,22,08,46,13.50
2009,05,22,08,47,13.50
2009,05,22,08,48,13.50
2009,05,22,08,49,13.60
2009,05,22,08,50,13.60
2009,05,22,08,51,13.60
2009,05,22,08,52,13.60
2009,05,22,08,53,13.60
2009,05,22,08,54,13.60
2009,05,22,08,55,13.60
2009,05,22,08,56,13.60
2009,05,22,08,57,13.70
2009,05,22,08,58,13.70
2009,05,22,08,59,13.80
2009,05,22,09,00,13.80
2009,05,22,09,01,13.90
2009,05,22,09,02,13.90
2009,05,22,09,03,13.90
2009,05,22,09,04,13.90
2009,05,22,09,05,13.90
2009,05,22,09,06,13.90
2009,05,22,09,07,13.90
2009,05,22,09,08,13.90
2009,05,22,09,09,14.00
2009,05,22,09,10,14.00
2009,05,22,09,11,14.00
2009,05,22,09,12,13.90
2009,05,22,09,13,13.90
2009,05,22,09,14,14.00
2009,05,22,09,15,14.00
2009,05,22,09,16,14.00
2009,05,22,09,17,14.00
2009,05,22,09,18,13.90
2009,05,22,09,19,13.90
2009,05,22,09,20,13.90
2009,05,22,09,21,14.00
2009,05,22,09,22,14.00
2009,05,22,09,23,14.00
2009,05,22,09,24,14.00
2009,05,22,09,25,14.00
2009,05,22,09,26,14.00
2009,05,22,09,27,13.90
2009,05,22,09,28,13.90
2009,05,22,09,29,13.90
2009,05,22,09,30,13.90
2009,05,22,09,31,13.90
2009,05,22,09,32,13.90
2009,05,22,09,33,13.90
2009,05,22,09,34,13.90
2009,05,22,09,35,13.80
2009,05,22,09,36,13.90
2009,05,22,09,37,13.90
2009,05,22,09,38,14.00
2009,05,22,09,39,14.10
2009,05,22,09,40,14.10
2009,05,22,09,41,14.10
2009,05,22,09,42,14.10
2009,05,22,09,43,14.10
2009,05,22,09,44,14.10
2009,05,22,09,45,14.10
2009,05,22,09,46,14.10
2009,05,22,09,47,14.00
2009,05,22,09,48,14.00
2009,05,22,09,49,13.90
2009,05,22,09,50,14.00
2009,05,22,09,51,14.00
2009,05,22,09,52,14.00
2009,05,22,09,53,14.00
2009,05,22,09,54,14.10
2009,05,22,09,55,14.10
2009,05,22,09,56,14.10
2009,05,22,09,57,14.20
2009,05,22,09,58,14.20
2009,05,22,09,59,14.30
2009,05,22,10,00,14.30
2009,05,22,10,01,14.30
2009,05,22,10,02,14.30
2009,05,22,10,03,14.20
2009,05,22,10,04,14.20
2009,05,22,10,05,14.20
2009,05,22,10,06,14.30
2009,05,22,10,07,14.20
2009,05,22,10,08,14.20
2009,05,22,10,09,14.30
2009,05,22,10,10,14.30
2009,05,22,10,11,14.30
2009,05,22,10,12,14.30
2009,05,22,10,13,14.30
2009,05,22,10,14,14.30
2009,05,22,10,15,14.40
2009,05,22,10,16,14.40
2009,05,22,10,17,14.50
2009,05,22,10,18,14.50
2009,05,22,10,19,14.50
2009,05,22,10,20,14.60
2009,05,22,10,21,14.60
2009,05,22,10,22,14.60
2009,05,22,10,23,14.60
2009,05,22,10,24,14.60
2009,05,22,10,25,14.50
2009,05,22,10,26,14.50
2009,05,22,10,27,14.60
2009,05,22,10,28,14.70
2009,05,22,10,29,14.80
2009,05,22,10,30,14.80
2009,05,22,10,31,14.80
2009,05,22,10,32,14.80
2009,05,22,10,33,14.80
2009,05,22,10,34,14.80
2009,05,22,10,35,14.70
2009,05,22,10,36,14.70
2009,05,22,10,37,14.70
2009,05,22,10,38,14.70
2009,05,22,10,39,14.70
2009,05,22,10,40,14.70
2009,05,22,10,41,14.80
2009,05,22,10,42,14.80
2009,05,22,10,43,14.80
2009,05,22,10,44,14.80
2009,05,22,10,45,14.80
2009,05,22,10,46,14.80
2009,05,22,10,47,14.80
2009,05,22,10,48,14.80
2009,05,22,10,49,14.80
2009,05,22,10,50,14.80
2009,05,22,10,51,14.60
2009,05,22,10,52,14.50
2009,05,22,10,53,14.50
2009,05,22,10,54,14.40
2009,05,22,10,55,14.40
2009,05,22,10,56,14.40
2009,05,22,10,57,14.30
2009,05,22,10,58,14.30
2009,05,22,10,59,14.30
2009,05,22,11,00,14.30
2009,05,22,11,01,14.40
2009,05,22,11,02,14.50
2009,05,22,11,03,14.60
2009,05,22,11,04,14.70
2009,05,22,11,05,14.80
2009,05,22,11,06,15.00
2009,05,22,11,07,15.00
2009,05,22,11,08,15.00
2009,05,22,11,09,15.10
2009,05,22,11,10,15.00
2009,05,22,11,11,15.10
2009,05,22,11,12,15.00
2009,05,22,11,13,15.00
2009,05,22,11,14,14.70
2009,05,22,11,15,14.40
2009,05,22,11,16,14.20
2009,05,22,11,17,14.10
2009,05,22,11,18,14.10
2009,05,22,11,19,14.20
2009,05,22,11,20,14.20
2009,05,22,11,21,14.30
2009,05,22,11,22,14.40
2009,05,22,11,23,14.50
2009,05,22,11,24,14.60
2009,05,22,11,25,14.70
2009,05,22,11,26,14.80
2009,05,22,11,27,14.80
2009,05,22,11,28,14.70
2009,05,22,11,29,14.70
2009,05,22,11,30,14.70
2009,05,22,11,31,14.70
2009,05,22,11,32,14.70
2009,05,22,11,33,14.80
2009,05,22,11,34,14.80
2009,05,22,11,35,14.90
2009,05,22,11,36,15.00
2009,05,22,11,37,15.00
2009,05,22,11,38,15.00
2009,05,22,11,39,15.00
2009,05,22,11,40,15.00
2009,05,22,11,41,15.00
2009,05,22,11,42,15.00
2009,05,22,11,43,15.00
2009,05,22,11,44,15.00
2009,05,22,11,45,15.00
2009,05,22,11,46,14.90
2009,05,22,11,47,14.80
2009,05,22,11,48,14.80
2009,05,22,11,49,14.80
2009,05,22,11,50,14.70
2009,05,22,11,51,14.70
2009,05,22,11,52,14.70
2009,05,22,11,53,14.70
2009,05,22,11,54,14.70
2009,05,22,11,55,14.70
2009,05,22,11,56,14.70
2009,05,22,11,57,14.70
2009,05,22,11,58,14.70
2009,05,22,11,59,14.80
2009,05,22,12,00,14.90
2009,05,22,12,01,15.00
2009,05,22,12,02,15.00
2009,05,22,12,03,15.00
2009,05,22,12,04,15.00
2009,05,22,12,05,15.00
2009,05,22,12,06,15.00
2009,05,22,12,07,15.00
2009,05,22,12,08,15.10
2009,05,22,12,09,15.20
2009,05,22,12,10,15.40
2009,05,22,12,11,15.50
2009,05,22,12,12,15.60
2009,05,22,12,13,15.80
2009,05,22,12,14,15.80
2009,05,22,12,15,15.80
2009,05,22,12,16,15.80
2009,05,22,12,17,15.90
2009,05,22,12,18,15.90
2009,05,22,12,19,15.90
2009,05,22,12,20,15.90
2009,05,22,12,21,15.90
2009,05,22,12,22,15.80
2009,05,22,12,23,15.70
2009,05,22,12,24,15.70
2009,05,22,12,25,15.70
2009,05,22,12,26,15.70
2009,05,22,12,27,15.70
2009,05,22,12,28,15.80
2009,05,22,12,29,15.90
2009,05,22,12,30,16.00
2009,05,22,12,31,16.10
2009,05,22,12,32,16.30
2009,05,22,12,33,16.40
2009,05,22,12,34,16.60
2009,05,22,12,35,16.80
2009,05,22,12,36,17.00
2009,05,22,12,37,17.20
2009,05,22,12,38,17.30
2009,05,22,12,39,17.30
2009,05,22,12,40,17.40
2009,05,22,12,41,17.40
2009,05,22,12,42,17.30
2009,05,22,12,43,17.40
2009,05,22,12,44,17.40
2009,05,22,12,45,17.40
2009,05,22,12,46,17.30
2009,05,22,12,47,17.30
2009,05,22,12,48,17.30
2009,05,22,12,49,17.40
2009,05,22,12,50,17.40
2009,05,22,12,51,17.40
2009,05,22,12,52,17.50
2009,05,22,12,53,17.60
2009,05,22,12,54,17.80
2009,05,22,12,55,17.90
2009,05,22,12,56,18.10
2009,05,22,12,57,18.10
2009,05,22,12,58,18.20
2009,05,22,12,59,18.20
2009,05,22,13,00,18.20
2009,05,22,13,01,18.20
2009,05,22,13,02,18.20
2009,05,22,13,03,18.30
2009,05,22,13,04,18.30
2009,05,22,13,05,18.40
2009,05,22,13,06,18.50
2009,05,22,13,07,18.50
2009,05,22,13,08,18.50
2009,05,22,13,09,18.40
2009,05,22,13,10,18.30
2009,05,22,13,11,18.30
2009,05,22,13,12,18.30
2009,05,22,13,13,18.30
2009,05,22,13,14,18.20
2009,05,22,13,15,18.30
2009,05,22,13,16,18.30
2009,05,22,13,17,18.40
2009,05,22,13,18,18.40
2009,05,22,13,19,18.40
2009,05,22,13,20,18.40
2009,05,22,13,21,18.50
2009,05,22,13,22,18.60
2009,05,22,13,23,18.70
2009,05,22,13,24,18.80
2009,05,22,13,25,18.80
2009,05,22,13,26,18.80
2009,05,22,13,27,18.80
2009,05,22,13,28,18.80
2009,05,22,13,29,18.70
2009,05,22,13,30,18.80
2009,05,22,13,31,18.80
2009,05,22,13,32,18.80
2009,05,22,13,33,18.90
2009,05,22,13,34,18.90
2009,05,22,13,35,18.80
2009,05,22,13,36,18.70
2009,05,22,13,37,18.60
2009,05,22,13,38,18.40
2009,05,22,13,39,18.30
2009,05,22,13,40,18.20
2009,05,22,13,41,18.20
2009,05,22,13,42,18.20
2009,05,22,13,43,18.20
2009,05,22,13,44,18.10
2009,05,22,13,45,18.10
2009,05,22,13,46,18.10
2009,05,22,13,47,18.10
2009,05,22,13,48,18.10
2009,05,22,13,49,18.10
2009,05,22,13,50,18.10
2009,05,22,13,51,18.10
2009,05,22,13,52,18.10
2009,05,22,13,53,18.10
2009,05,22,13,54,18.20
2009,05,22,13,55,18.20
2009,05,22,13,56,18.30
2009,05,22,13,57,18.40
2009,05,22,13,58,18.40
2009,05,22,13,59,18.50
2009,05,22,14,00,18.40
2009,05,22,14,01,18.40
2009,05,22,14,02,18.40
2009,05,22,14,03,18.30
2009,05,22,14,04,18.40
2009,05,22,14,05,18.40
2009,05,22,14,06,18.30
2009,05,22,14,07,18.40
2009,05,22,14,08,18.40
2009,05,22,14,09,18.40
2009,05,22,14,10,18.40
2009,05,22,14,11,18.40
2009,05,22,14,12,18.50
2009,05,22,14,13,18.60
2009,05,22,14,14,18.60
2009,05,22,14,15,18.70
2009,05,22,14,16,18.90
2009,05,22,14,17,19.00
2009,05,22,14,18,19.10
2009,05,22,14,19,19.20
2009,05,22,14,20,19.20
2009,05,22,14,21,19.20
2009,05,22,14,22,19.20
2009,05,22,14,23,19.30
2009,05,22,14,24,19.30
2009,05,22,14,25,19.30
2009,05,22,14,26,19.30
2009,05,22,14,27,19.30
2009,05,22,14,28,19.30
2009,05,22,14,29,19.30
2009,05,22,14,30,19.30
2009,05,22,14,31,19.40
2009,05,22,14,32,19.50
2009,05,22,14,33,19.60
2009,05,22,14,34,19.70
2009,05,22,14,35,19.70
2009,05,22,14,36,19.80
2009,05,22,14,37,19.80
2009,05,22,14,38,19.80
2009,05,22,14,39,19.80
2009,05,22,14,40,19.90
2009,05,22,14,41,19.90
2009,05,22,14,42,20.00
2009,05,22,14,43,20.20
2009,05,22,14,44,20.30
2009,05,22,14,45,20.30
2009,05,22,14,46,20.40
2009,05,22,14,47,20.40
2009,05,22,14,48,20.30
2009,05,22,14,49,20.20
2009,05,22,14,50,20.20
2009,05,22,14,51,20.20
2009,05,22,14,52,20.10
2009,05,22,14,53,20.10
2009,05,22,14,54,20.00
2009,05,22,14,55,20.00
2009,05,22,14,56,19.90
2009,05,22,14,57,19.90
2009,05,22,14,58,19.90
2009,05,22,14,59,19.90
2009,05,22,15,00,19.90
2009,05,22,15,01,19.80
2009,05,22,15,02,19.80
2009,05,22,15,03,19.80
2009,05,22,15,04,19.80
2009,05,22,15,05,19.80
2009,05,22,15,06,19.80
2009,05,22,15,07,19.80
2009,05,22,15,08,19.80
2009,05,22,15,09,19.80
2009,05,22,15,10,19.80
2009,05,22,15,11,19.70
2009,05,22,15,12,19.80
2009,05,22,15,13,19.90
2009,05,22,15,14,19.90
2009,05,22,15,15,19.90
2009,05,22,15,16,19.90
2009,05,22,15,17,19.90
2009,05,22,15,18,19.90
2009,05,22,15,19,19.80
2009,05,22,15,20,19.80
2009,05,22,15,21,19.80
2009,05,22,15,22,19.80
2009,05,22,15,23,19.80
2009,05,22,15,24,19.70
2009,05,22,15,25,19.70
2009,05,22,15,26,19.70
2009,05,22,15,27,19.70
2009,05,22,15,28,19.80
2009,05,22,15,29,19.80
2009,05,22,15,30,19.90
2009,05,22,15,31,19.90
2009,05,22,15,32,20.00
2009,05,22,15,33,20.00
2009,05,22,15,34,19.90
2009,05,22,15,35,19.90
2009,05,22,15,36,19.70
2009,05,22,15,37,19.70
2009,05,22,15,38,19.70
2009,05,22,15,39,19.70
2009,05,22,15,40,19.80
2009,05,22,15,41,19.80
2009,05,22,15,42,19.80
2009,05,22,15,43,19.80
2009,05,22,15,44,19.80
2009,05,22,15,45,19.70
2009,05,22,15,46,19.70
2009,05,22,15,47,19.70
2009,05,22,15,48,19.80
2009,05,22,15,49,19.80
2009,05,22,15,50,19.80
2009,05,22,15,51,19.90
2009,05,22,15,52,19.90
2009,05,22,15,53,20.00
2009,05,22,15,54,20.00
2009,05,22,15,55,20.10
2009,05,22,15,56,20.20
2009,05,22,15,57,20.30
2009,05,22,15,58,20.40
2009,05,22,15,59,20.40
2009,05,22,16,00,20.50
2009,05,22,16,01,20.60
2009,05,22,16,02,20.60
2009,05,22,16,03,20.60
2009,05,22,16,04,20.60
2009,05,22,16,05,20.50
2009,05,22,16,06,20.50
2009,05,22,16,07,20.40
2009,05,22,16,08,20.40
2009,05,22,16,09,20.40
2009,05,22,16,10,20.30
2009,05,22,16,11,20.30
2009,05,22,16,12,20.30
2009,05,22,16,13,20.30
2009,05,22,16,14,20.20
2009,05,22,16,15,20.10
2009,05,22,16,16,20.00
2009,05,22,16,17,19.90
2009,05,22,16,18,19.80
2009,05,22,16,19,19.80
2009,05,22,16,20,19.80
2009,05,22,16,21,19.90
2009,05,22,16,22,20.00
2009,05,22,16,23,20.10
2009,05,22,16,24,20.10
2009,05,22,16,25,20.20
2009,05,22,16,26,20.20
2009,05,22,16,27,20.20
2009,05,22,16,28,20.20
2009,05,22,16,29,20.20
2009,05,22,16,30,20.20
2009,05,22,16,31,20.10
2009,05,22,16,32,20.00
2009,05,22,16,33,19.90
2009,05,22,16,34,19.80
2009,05,22,16,35,19.80
2009,05,22,16,36,19.80
2009,05,22,16,37,19.80
2009,05,22,16,38,19.90
2009,05,22,16,39,19.90
2009,05,22,16,40,20.00
2009,05,22,16,41,20.00
2009,05,22,16,42,20.10
2009,05,22,16,43,20.00
2009,05,22,16,44,19.80
2009,05,22,16,45,19.70
2009,05,22,16,46,19.70
2009,05,22,16,47,19.70
2009,05,22,16,48,19.70
2009,05,22,16,49,19.80
2009,05,22,16,50,19.90
2009,05,22,16,51,20.00
2009,05,22,16,52,19.90
2009,05,22,16,53,19.80
2009,05,22,16,54,19.80
2009,05,22,16,55,19.80
2009,05,22,16,56,19.80
2009,05,22,16,57,19.80
2009,05,22,16,58,19.80
2009,05,22,16,59,19.80
2009,05,22,17,00,19.70
2009,05,22,17,01,19.70
2009,05,22,17,02,19.70
2009,05,22,17,03,19.70
2009,05,22,17,04,19.60
2009,05,22,17,05,19.50
2009,05,22,17,06,19.40
2009,05,22,17,07,19.40
2009,05,22,17,08,19.20
2009,05,22,17,09,19.20
2009,05,22,17,10,19.00
2009,05,22,17,11,19.00
2009,05,22,17,12,19.00
2009,05,22,17,13,18.90
2009,05,22,17,14,19.00
2009,05,22,17,15,19.10
2009,05,22,17,16,19.20
2009,05,22,17,17,19.30
2009,05,22,17,18,19.30
2009,05,22,17,19,19.30
2009,05,22,17,20,19.20
2009,05,22,17,21,19.20
2009,05,22,17,22,19.10
2009,05,22,17,23,19.00
2009,05,22,17,24,18.90
2009,05,22,17,25,18.70
2009,05,22,17,26,18.70
2009,05,22,17,27,18.60
2009,05,22,17,28,18.60
2009,05,22,17,29,18.70
2009,05,22,17,30,18.60
2009,05,22,17,31,18.60
2009,05,22,17,32,18.50
2009,05,22,17,33,18.40
2009,05,22,17,34,18.20
2009,05,22,17,35,18.10
2009,05,22,17,36,18.00